#timestamp,LO_Frequency,Hit,StdDev 
1457316015.9,286047003.5,N
1457316035.7,286047000.9,N
1457316055.5,286047001.8,N
1457316075.3,286047003.5,N
1457316095.2,286047004.8,N
1457316115.0,286047006.3,N
1457316115.9,286047006.3,N
1457316135.7,286047002.9,N
1457316155.6,286047004.1,N
1457316175.4,286047005.0,N
1457316195.2,286047005.8,N
1457316215.1,286047005.8,N
1457316216.0,286047005.8,N
1457316235.8,286047006.7,Y
1457316255.6,286047005.7,P
1457316275.5,286047004.9,P
1457316295.3,286047008.9,P
1457316315.1,286047006.8,Y
1457316335.9,286047002.6,P
1457316355.7,286047000.3,N
1457316375.5,286046999.7,N
1457316395.4,286047000.3,N
1457316415.2,286046998.9,N
1457316435.0,286046999.5,N
1457316435.9,286046999.5,N
1457316455.8,286046999.4,N
1457316475.6,286047001.0,N
1457316495.4,286047001.0,N
1457316515.3,286047000.5,N
1457316535.1,286047001.5,N
1457316536.0,286047001.5,N
1457316555.8,286047005.3,Y
1457316575.7,286047007.6,P
1457316595.5,286047008.7,N
1457316615.3,286047010.7,P
1457316635.2,286047015.1,Y
1457316655.9,286047006.6,P
1457316675.7,286047001.9,P
1457316695.6,286047000.5,N
1457316715.4,286047004.0,N
1457316735.2,286047007.1,N
1457316755.0,286047006.8,N
1457316756.0,286047006.8,N
1457316775.8,286047007.1,N
1457316795.6,286047007.4,Y
1457316815.5,286047005.9,P
1457316835.3,286047002.9,P
1457316855.1,286047002.7,N
1457316875.9,286046996.6,N
1457316895.7,286046995.9,N
1457316915.5,286046997.5,N
1457316935.3,286046998.0,N
1457316955.2,286046996.4,N
1457316975.0,286046992.8,N
1457316975.9,286046992.8,N
1457316995.7,286046989.6,N
1457317015.6,286046986.3,N
1457317035.4,286046984.4,N
1457317055.2,286046982.3,N
1457317075.1,286046981.4,N
1457317076.0,286046981.4,N
1457317095.8,286046979.0,N
1457317115.6,286046982.0,N
1457317135.5,286046980.0,N
1457317155.3,286046978.2,N
1457317175.1,286046976.2,N
1457317195.9,286046977.6,N
1457317215.7,286046976.1,N
1457317235.5,286046978.6,N
1457317255.4,286046977.8,N
1457317275.2,286046979.1,N
1457317295.0,286046979.1,N
1457317295.9,286046979.1,N
1457317315.7,286046981.8,N
1457317335.6,286046979.4,N
1457317355.4,286046978.9,N
1457317375.2,286046980.2,N
1457317395.1,286046977.8,N
1457317396.0,286046977.8,Y
1457317415.8,286046996.1,P
1457317435.6,286046993.3,N
1457317455.5,286046995.7,N
1457317475.3,286046998.7,N
1457317495.1,286046998.1,N
1457317515.9,286047001.0,N
1457317535.7,286047003.7,N
1457317555.5,286047006.7,N
1457317575.4,286047013.8,N
1457317595.2,286047018.0,N
1457317615.0,286047019.2,N
1457317615.9,286047019.2,N
1457317635.8,286047020.0,N
1457317655.6,286047017.9,N
1457317675.4,286047019.6,N
1457317695.3,286047019.7,N
1457317715.1,286047019.7,N
1457317716.0,286047019.7,N
1457317735.8,286047022.0,N
1457317755.6,286047020.0,N
1457317775.5,286047019.5,N
1457317795.3,286047019.2,N
1457317815.1,286047018.9,N
1457317835.9,286047019.4,N
1457317855.7,286047019.3,N
1457317875.5,286047021.1,N
1457317895.4,286047020.9,N
1457317915.2,286047022.8,N
1457317935.0,286047024.3,N
1457317935.9,286047024.3,N
1457317955.8,286047024.5,N
1457317975.8,286047024.6,N
1457317995.7,286047020.6,N
1457318015.5,286047020.7,N
1457318035.3,286047025.1,Y
1457318055.2,286047001.4,P
1457318075.0,286047003.1,N
1457318075.9,286047003.1,N
1457318095.7,286047005.6,N
1457318115.6,286047003.4,N
1457318135.4,286047004.3,N
1457318155.2,286047005.9,N
1457318175.1,286047003.2,N
1457318176.0,286047003.2,N
1457318195.8,286047000.0,N
1457318215.6,286047000.9,N
1457318235.5,286046999.8,N
1457318255.3,286046998.4,N
1457318275.1,286046996.6,N
1457318295.8,286046999.6,N
1457318315.7,286046997.0,N
1457318335.5,286046996.7,N
1457318355.3,286046997.7,N
1457318375.2,286046997.8,N
1457318395.9,286046996.5,N
1457318415.7,286046997.1,N
1457318435.6,286046997.6,N
1457318455.4,286046999.2,N
1457318475.2,286046996.8,N
1457318495.1,286046993.7,N
1457318496.0,286046993.7,N
1457318515.8,286046994.3,N
1457318535.6,286046995.4,N
1457318555.5,286046996.8,N
1457318575.3,286046998.8,N
1457318595.1,286046997.6,N
1457318615.8,286046993.7,N
1457318635.7,286046993.4,N
1457318655.5,286046994.2,N
1457318675.3,286046992.5,N
1457318695.2,286046993.4,N
1457318715.9,286046997.7,N
1457318735.7,286046996.1,N
1457318755.6,286046997.9,N
1457318775.4,286046995.5,N
1457318795.2,286046999.6,N
1457318815.1,286047002.5,N
1457318816.0,286047002.5,N
1457318835.8,286046998.4,N
1457318855.6,286046997.3,N
1457318875.5,286046998.5,N
1457318895.3,286046995.1,N
1457318915.1,286046998.5,N
1457318935.9,286046995.8,N
1457318955.7,286046994.2,N
1457318975.5,286046993.3,N
1457318995.4,286046992.2,Y
1457319015.2,286046995.6,P
1457319035.0,286046997.7,P
1457319035.9,286046997.7,N
1457319055.8,286046995.4,Y
1457319075.6,286046998.2,P
1457319095.4,286046998.6,N
1457319115.3,286046997.2,P
1457319135.1,286046996.9,Y
1457319136.0,286046996.9,P
1457319155.8,286047003.2,P
1457319175.7,286047003.4,N
1457319195.5,286047002.5,N
1457319215.3,286047000.9,N
1457319235.1,286046998.6,N
1457319255.9,286046999.4,N
1457319275.7,286046998.5,N
1457319295.5,286046995.1,N
1457319315.4,286046999.1,N
1457319335.2,286046997.6,N
1457319355.0,286046997.2,N
1457319355.9,286046997.2,N
1457319375.8,286046999.5,N
1457319395.6,286046999.0,N
1457319415.4,286046996.3,N
1457319435.3,286046997.6,N
1457319455.1,286046997.6,N
1457319456.0,286046997.6,N
1457319475.8,286046998.0,N
1457319495.7,286046998.5,N
1457319515.5,286047001.0,N
1457319535.3,286046999.3,N
1457319555.2,286046995.2,N
1457319575.9,286046996.5,N
1457319595.7,286046996.7,N
